DateTimeUTC,F1_A11,F1_S11,BsB_S11,BsG_S11,BsR_S11,BbsB_S11,BbsG_S11,BbsR_S11,BaB_A11,BaG_A11,BaR_A11,Tu_S11,T_S11,Uu_S11,U_S11,P_S11,T1_A11
2021-02-04T11:00:00Z,00000200,21000000,,,,,,,-000.18,-000.18,0000.37,16.6,23.6,01.0,00.6,0619.0,30.9
2021-02-04T11:01:00Z,00000200,21000000,,,,,,,0000.19,0000.48,-000.12,16.6,23.6,00.9,00.6,0619.1,30.9
2021-02-04T11:02:00Z,00000200,21000000,,,,,,,0000.02,-000.11,0000.23,16.6,23.6,00.9,00.6,0619.1,30.9
2021-02-04T11:03:00Z,00000200,61000000,,,,,,,0000.29,0000.42,0000.14,16.6,23.6,00.9,00.6,0619.0,30.9
2021-02-04T11:04:00Z,00000200,41000000,-000.05,0000.50,-000.00,-000.05,0000.13,0000.24,0000.41,0000.43,0000.28,17.0,23.5,01.2,00.8,0619.6,31.0
2021-02-04T11:05:00Z,00000200,01000000,0000.27,0000.14,0000.06,-000.34,0000.35,0000.12,-000.10,-000.31,-000.22,17.1,23.6,01.3,00.8,0619.9,31.0
2021-02-04T11:06:00Z,00000200,01000000,-000.51,0000.11,0000.30,-000.10,0000.04,0000.31,-000.13,0000.25,0000.19,17.2,23.6,01.2,00.8,0620.1,31.0
2021-02-04T11:07:00Z,00000200,01000000,-000.30,0000.13,-000.09,-000.07,0000.06,0000.04,0000.40,0000.29,0000.46,17.2,23.6,01.2,00.8,0619.6,31.0
2021-02-04T11:08:00Z,00000200,01000000,0000.02,0000.18,0000.03,-000.54,0000.30,0000.12,-000.41,-000.20,-000.35,17.2,23.6,01.2,00.8,0619.9,31.0
2021-02-04T11:09:00Z,00000200,01000000,0000.15,0000.21,0000.07,-000.10,0000.22,0000.16,0000.37,0000.06,-000.07,17.2,23.6,01.3,00.9,0620.2,31.0
2021-02-04T11:10:00Z,00000200,01000000,-000.25,0000.23,-000.12,-000.40,0000.08,0000.32,-000.01,0000.42,0000.29,17.2,23.6,01.3,00.9,0620.1,31.0
2021-02-04T11:11:00Z,00000200,01000000,0000.36,0000.20,0000.15,-000.31,-000.05,0000.23,0000.12,0000.01,-000.26,17.1,23.5,01.2,00.8,0620.1,30.9
2021-02-04T11:12:00Z,00000200,01000000,0000.19,0000.17,-000.15,0000.07,0000.22,0000.13,0000.18,0000.19,0000.61,17.1,23.5,01.2,00.8,0619.9,31.0
2021-02-04T11:13:00Z,00000200,01000000,0000.04,0000.17,0000.34,-000.18,0000.30,0000.21,0000.16,-000.01,0000.39,17.1,23.5,01.2,00.8,0619.2,31.0
2021-02-04T11:14:00Z,00000200,01000000,0000.20,0000.33,0000.18,-000.99,-000.03,-000.02,0000.50,0000.51,0000.75,17.1,23.5,01.3,00.9,0618.4,31.0
2021-02-04T11:15:00Z,00000200,01000000,0000.23,0000.51,0000.11,0000.21,-000.03,0000.16,0000.79,0000.93,0000.56,17.1,23.5,01.3,00.9,0618.5,31.0
2021-02-04T11:16:00Z,00000200,01000000,0000.45,0000.31,0000.19,-000.34,0000.08,0000.02,0001.19,0000.86,0000.85,17.1,23.5,01.3,00.9,0618.7,31.0
2021-02-04T11:17:00Z,00000200,01000000,0000.45,0000.47,0000.20,-000.09,0000.40,0000.11,0000.83,0001.27,0000.97,17.2,23.5,01.3,00.9,0618.6,31.0
2021-02-04T11:18:00Z,00000200,01000000,0000.21,0000.05,0000.30,-000.47,0000.19,0000.22,0000.72,0000.62,0000.62,17.2,23.5,01.2,00.8,0618.4,31.0
2021-02-04T11:19:00Z,00000200,01000000,-000.10,0000.23,0000.13,-000.22,0000.19,0000.05,0001.29,0000.33,0000.99,17.2,23.5,01.2,00.8,0618.2,31.0
2021-02-04T11:20:00Z,00000200,01000000,-000.36,0000.40,0000.38,-000.35,0000.31,0000.17,0000.62,0001.28,0000.97,17.2,23.5,01.3,00.9,0617.9,31.0
2021-02-04T11:21:00Z,00000200,01000000,-000.35,0000.13,-000.00,-000.65,0000.04,0000.04,0000.44,0000.17,0000.54,17.2,23.5,01.4,00.9,0618.3,31.0
2021-02-04T11:22:00Z,00000200,01000000,0000.02,0000.12,0000.21,-000.81,0000.30,0000.26,0000.36,0000.83,0000.21,17.2,23.6,01.3,00.9,0618.5,31.0
2021-02-04T11:23:00Z,00000200,01000000,-000.06,0000.45,0000.08,-000.14,0000.23,0000.10,-000.24,-000.15,0000.31,17.2,23.5,01.3,00.9,0619.0,31.0
2021-02-04T11:24:00Z,00000200,01000000,-000.01,0000.03,0000.07,-000.26,0000.12,0000.11,0000.15,0000.39,-000.13,17.2,23.5,01.3,00.9,0618.8,30.9
2021-02-04T11:25:00Z,00000200,01000000,-000.29,0000.28,0000.02,-000.10,-000.04,0000.23,0000.36,-000.29,0000.10,17.1,23.5,01.2,00.8,0619.2,31.0
2021-02-04T11:26:00Z,00000200,01000000,-000.41,0000.31,0000.19,-000.61,-000.12,0000.02,-000.05,0000.32,0000.47,17.1,23.5,01.3,00.9,0618.8,31.0
2021-02-04T11:27:00Z,00000200,01000000,0000.46,0000.34,-000.08,-000.52,0000.04,0000.09,0000.50,0000.18,0000.37,17.1,23.5,01.3,00.9,0619.5,31.0
2021-02-04T11:28:00Z,00000200,01000000,-000.47,0000.24,-000.19,0000.07,0000.21,0000.26,0000.22,0000.35,-000.02,17.1,23.5,01.3,00.9,0619.4,31.0
2021-02-04T11:29:00Z,00000200,01000000,0000.34,0000.40,0000.11,-000.27,0000.16,-000.03,0000.34,0000.12,0000.52,17.1,23.5,01.3,00.9,0619.5,31.0
2021-02-04T11:30:00Z,00000200,01000000,0000.31,0000.03,0000.33,-000.21,0000.21,0000.30,-000.16,-000.31,-000.09,17.1,23.5,01.3,00.9,0619.5,31.0
2021-02-04T11:31:00Z,00000200,01000000,0000.20,0000.12,-000.11,-000.19,-000.13,0000.34,0000.28,0000.35,0000.36,17.1,23.5,01.3,00.9,0619.5,31.0
2021-02-04T11:32:00Z,00000200,01000000,0000.46,0000.29,0000.26,-000.74,0000.13,-000.02,0000.06,0000.54,-000.07,17.1,23.5,01.4,01.0,0619.7,31.0
2021-02-04T11:33:00Z,00000200,01000000,-000.24,0000.19,-000.13,0000.01,0000.01,0000.05,0000.19,0000.02,-000.04,17.2,23.5,01.3,00.9,0619.6,31.0
2021-02-04T11:34:00Z,00000200,01000000,0000.03,0000.40,0000.03,-000.31,0000.15,0000.39,0000.41,0000.32,0000.55,17.2,23.5,01.3,00.9,0619.1,31.0
2021-02-04T11:35:00Z,00000200,01000000,0000.16,0000.20,0000.09,-000.46,0000.22,0000.08,0000.37,0000.53,0000.31,17.2,23.5,01.3,00.9,0619.1,31.0
2021-02-04T11:36:00Z,00000200,01000000,-000.86,0000.14,-000.08,-000.11,0000.14,0000.08,-000.01,-000.22,0000.15,17.2,23.5,01.3,00.9,0619.4,31.0
2021-02-04T11:37:00Z,00000200,01000000,-000.10,-000.04,0000.09,-000.52,-000.12,0000.31,0000.13,0000.04,0000.02,17.2,23.5,01.3,00.9,0619.8,31.0
2021-02-04T11:38:00Z,00000200,01000000,-000.22,0000.10,0000.29,-000.10,0000.23,0000.17,0000.11,0000.38,0000.26,17.2,23.5,01.2,00.8,0619.7,31.0
2021-02-04T11:39:00Z,00000200,01000000,-000.10,0000.33,-000.14,-000.41,0000.04,0000.08,-000.08,0000.15,-000.11,17.2,23.5,01.3,00.9,0619.5,31.0
2021-02-04T11:40:00Z,00000200,01000000,0000.36,-000.25,0000.14,-000.26,0000.27,0000.09,0000.54,0000.21,0000.06,17.1,23.5,01.3,00.9,0619.5,31.0
2021-02-04T11:41:00Z,00000200,01000000,0000.30,0000.00,0000.09,-000.41,0000.16,0000.17,0000.05,0000.11,0000.37,17.1,23.5,01.3,00.9,0619.2,31.0
2021-02-04T11:42:00Z,00000200,01000000,0000.04,0000.31,0000.06,-000.14,0000.16,0000.22,-000.07,-000.06,-000.05,17.1,23.5,01.4,00.9,0619.2,31.0
2021-02-04T11:43:00Z,00000200,01000000,0000.20,0000.38,0000.30,-000.26,-000.14,0000.40,0000.14,-000.19,0000.25,17.1,23.5,01.4,00.9,0619.0,31.0
2021-02-04T11:44:00Z,00000200,01000000,-000.14,0000.30,0000.30,-000.14,0000.41,0000.17,0000.09,0000.58,-000.01,17.1,23.5,01.4,01.0,0619.9,31.0
2021-02-04T11:45:00Z,00000200,01000000,-000.72,0000.17,0000.10,-000.17,-000.02,-000.01,0000.20,-000.19,-000.13,17.1,23.5,01.4,01.0,0619.2,31.0
2021-02-04T11:46:00Z,00000200,01000000,-000.36,0000.27,0000.13,0000.20,0000.32,0000.04,-000.07,0000.37,0000.21,17.1,23.4,01.4,00.9,0619.1,30.9
2021-02-04T11:47:00Z,00000200,01000000,0000.26,0000.25,0000.05,-000.05,-000.04,0000.04,0000.35,0000.16,0000.37,17.1,23.5,01.4,00.9,0619.6,30.9
2021-02-04T11:48:00Z,00000200,01000000,-000.00,0000.36,-000.10,-000.18,0000.01,0000.20,0000.06,0000.07,0000.20,17.2,23.5,01.4,00.9,0619.6,31.0
2021-02-04T11:49:00Z,00000200,01000000,-000.09,0000.25,0000.26,-000.06,-000.02,0000.53,0000.63,0000.12,0000.25,17.1,23.5,01.4,00.9,0619.6,31.0
2021-02-04T11:50:00Z,00000200,01000000,-000.98,0000.25,0000.17,-000.10,0000.03,0000.12,0000.08,0000.51,0000.57,17.1,23.5,01.3,00.9,0619.4,30.9
2021-02-04T11:51:00Z,00000200,01000000,-000.53,-000.17,0000.22,-000.16,0000.26,0000.08,0000.79,0000.86,0000.18,17.1,23.5,01.4,00.9,0618.9,31.0
2021-02-04T11:52:00Z,00000200,01000000,-000.19,0000.31,0000.12,-000.19,-000.03,-000.02,0000.23,0000.36,0000.57,17.1,23.5,01.4,00.9,0618.9,31.0
2021-02-04T11:53:00Z,00000200,01000000,0000.02,0000.46,0000.26,0000.11,0000.02,0000.21,0000.79,0000.66,0000.54,17.1,23.5,01.5,01.0,0618.7,31.0
2021-02-04T11:54:00Z,00000200,01000000,-000.16,0000.07,0000.21,-000.13,0000.33,0000.28,0000.15,0000.43,0000.88,17.1,23.5,01.5,01.0,0619.0,31.0
2021-02-04T11:55:00Z,00000200,01000000,-000.08,0000.36,0000.14,-000.19,0000.26,0000.44,0000.18,-000.10,0000.00,17.1,23.5,01.5,01.0,0619.3,30.9
2021-02-04T11:56:00Z,00000200,01000000,-000.22,0000.11,0000.00,-000.21,-000.04,0000.32,0000.37,0000.42,-000.05,17.1,23.5,01.5,01.0,0619.6,30.9
2021-02-04T11:57:00Z,00000200,41000000,,,,,,,-000.40,-000.47,-000.27,17.1,23.5,01.6,01.1,0619.9,30.9
2021-02-04T11:58:00Z,00000200,61000000,,,,,,,0000.14,0000.23,0000.20,16.7,23.5,01.3,00.8,0618.5,31.0
2021-02-04T11:59:00Z,00000200,21000000,,,,,,,-000.12,-000.33,0000.16,16.7,23.6,01.2,00.8,0618.5,31.0
